Location: Caltech
(34.1382°N, 118.1253°W)
Time: 04:56:46
(UTC-07:00)

Gurwin Techsat 1B - Visible Passes

Search period start: 28 March 2017 00:00
Search period end: 07 April 2017 00:00
Orbit: 813 x 813 km, 98.6° (Epoch: 26 March)

Date Brightness Start Highest point End Pass type
(mag) Time Alt. Az. Time Alt. Az. Time Alt. Az.
29 Mar 11.1 03:45:08 10° NNW 03:45:31 12° NNW 03:45:31 12° NNW visible
30 Mar 11.1 03:21:53 10° N 03:22:34 14° N 03:22:34 14° N visible
31 Mar 11.2 02:58:55 10° N 02:59:35 14° N 02:59:35 14° N visible
01 Apr 11.4 02:36:11 10° NNE 02:36:36 12° NNE 02:36:36 12° NNE visible
02 Apr 10.9 03:54:09 10° NNW 03:54:52 13° NNW 03:54:52 13° NNW visible
03 Apr 10.9 03:30:47 10° N 03:31:54 16° N 03:31:54 16° N visible
04 Apr 10.9 03:07:42 10° N 03:08:55 17° N 03:08:55 17° N visible
05 Apr 11.1 02:44:53 10° NNE 02:45:57 16° NNE 02:45:57 16° NNE visible
06 Apr 11.3 02:22:17 10° NNE 02:22:59 14° NNE 02:22:59 14° NNE visible
06 Apr 10.8 04:03:14 10° NNW 04:04:12 13° NNW 04:04:12 13° NNW visible
